Regional Weather Roundup
Issued by NWS Midland/Odessa, TX

Skip options and go directly to product.
Home | Oldest Version | Previous Version | Current Version | All | Graphics & Text | Save Text | Print | Product List | Glossary On

Skip product version selection by date and time.   
668
ASUS44 KMAF 260201
RWRMAF
MIDLAND AREA WEATHER ROUNDUP
NATIONAL WEATHER SERVICE MIDLAND TX
900 PM CDT SUN SEP 25 2016

...IN SOUTHWEST TEXAS AND SOUTHEAST NEW MEXICO...

CITY           SKY/WX    TMP DP  RH WIND       PRES   REMARKS
ALPINE         CLOUDY    58  58  97 N13G18    30.27R
ANDREWS        CLOUDY    58  58 100 NE10      30.25R
ARTESIA        CLOUDY    66  45  45 E6        30.29R
BIG SPRING     CLOUDY    60  58  93 N12       30.24R
CARLSBAD       CLOUDY    63  52  67 NE7       30.26R
DRYDEN           N/A     67  66  97 NE10      30.10R
FORT STOCKTON  CLOUDY    61  60  97 NE21      30.18R
GUAD PASS      CLOUDY    53  52  96 NE33      30.29S
HOBBS          CLOUDY    63  48  59 NE12      30.27S
MARFA          CLOUDY   N/A N/A N/A N23G30    30.22R HAZE
MIDLAND AIRPK  CLOUDY    60  56  85 NE17      30.23R
MIDLAND INTL   CLOUDY    60  55  83 NE21G29   30.22R
ODESSA         CLOUDY    60  55  83 NE21      30.23R
PECOS          DRIZZLE   60  58  93 NE16G23     N/A
PRESIDIO       LGT RAIN  66  64  94 NE3       30.11R
SEMINOLE       CLOUDY    60  52  76 NE9G18    30.27R
SNYDER           N/A     58  57  96 CALM      30.21S
WINK           CLOUDY    60  58  92 NE18      30.21R
$$
...OTHER STATIONS IN TEXAS...

CITY           SKY/WX    TMP DP  RH WIND       PRES   REMARKS
ABILENE        CLOUDY    62  62 100 N14       30.17R FOG
AMARILLO       MOCLDY    59  44  57 E6        30.32R
AUSTIN         CLOUDY    73  71  93 N5        30.01F
BROWNSVILLE    CLEAR     83  76  79 SE8       29.88R
CORPUS CHRISTI CLOUDY    84  78  82 E9        29.92R
DALLAS FTW     CLOUDY    77  72  84 N10       30.06R
DEL RIO        CLOUDY    73  67  81 NW8       30.01R
EL PASO        CLOUDY    69  44  40 E14G23    30.20R
HOUSTON INT    CLOUDY    74  72  93 NW5       30.00R
LUBBOCK        CLOUDY    61  48  62 NE10      30.27R
SAN ANGELO     CLOUDY    66  63  90 N15       30.14R
SAN ANTONIO    LGT RAIN  72  70  93 E12       30.01S
WACO           CLOUDY    74  73  97 NE5       30.06R
WICHITA FALLS  NOT AVBL
$$
...OTHER LOCATIONS IN NEW MEXICO...

CITY           SKY/WX    TMP DP  RH WIND       PRES   REMARKS
ALAMAGORDO     CLEAR     70  41  35 E15G32    30.19R
ALBUQUERQUE    MOCLDY    67  36  31 E20       30.33R
CANNON AFB     PTCLDY    60  42  52 E9        30.33R
CLOVIS         CLEAR     55  41  58 NE9       30.33R
HOLLOMAN AFB   CLOUDY    69  42  37 NE9       30.18R
ROSWELL        CLOUDY    67  42  40 E7        30.29R
RUIDOSO        CLOUDY    55  39  54 E10       30.45R
SANTA FE       CLOUDY    60  35  39 SE14      30.39R
TRUTH OR CONSE MOCLDY    67  39  35 N12       30.25R
TUCUMCARI      CLEAR     61  35  37 NE9       30.33R
$$

USA.gov is the U.S. government's official web portal to all federal, state and local government web resources and services.